Content
SEND FEEDBACK

Daily
Averages
Monthly
Summary
Turkmenistan

KURTILE, TURKMENISTAN


Home > Asia > Turkmenistan
Elevation: 748 feet     Latitude: 37 58N     Longitude: 058 19E

WEATHER
 
SELECT A DAY
Number of Records: 177,170;   Date Range: 3/15/97 - 7/23/14
 
SHARE

PRINT THIS DATA

[ ← Previous Day ]
WEATHER ALMANAC - SEPTEMBER 15, 2013
[ Next Day → ]
[ °C ]   °F
Weather ElementAverageHighLow
Temperature76.4 °F86 °F (3:00 pm)66.2 °F (7:00 am)
Dewpoint46 °F57 °F (2:00 am)42.8 °F (9:00 am)
Humidity32.5 %54 % (2:00 am)19 % (2:00 pm)
Barometer29.99 in30.06 in (10:00 am)29.92 in (7:00 pm)
Wind Speed6.8 mph13.4 mph (5:00 pm)
Weather ElementAverage
Visibility6.1 mi
Wind DirectionENE (80.3 °)

Weather ElementTotal
Precipitation---
Cooling Degree Days11.1 (Base 65)
Growing Degree Days26.1 (Base 50)
Averaged from 31 records on September 15, 2013
WEATHER CONDITIONS BREAKOUT
WIND DIRECTION BREAKOUT
WEATHER BY HOUR - SEPTEMBER 15, 2013
[ °C ]   °F
Local TimeTemperatureDewpointHumidityBarometerVisibilityWind DirectionWind SpeedGust SpeedPrecipitationEventsConditions
1:00 AM71.6 °F53.6 °F53 %30.01 in6.2 miVariable2.2 mphScattered Clouds
2:00 AM70.0 °F57.0 °F54 %30.01 in6.0 miCalmPartly Cloudy
2:00 AM73.4 °F51.8 °F47 %30.01 in6.2 miCalmScattered Clouds
3:00 AM73.4 °F53.6 °F50 %30.01 in6.2 miSSW (210°)4.5 mphScattered Clouds
4:00 AM71.6 °F46.4 °F41 %30.01 in6.2 miNE (50°)6.7 mphScattered Clouds
5:00 AM70.0 °F49.0 °F35 %30.01 in6.0 miCalmScattered Clouds
5:00 AM69.8 °F44.6 °F40 %30.01 in6.2 miVariable2.2 mphPartly Cloudy
6:00 AM68.0 °F44.6 °F43 %30.04 in6.2 miVariable2.2 mphPartly Cloudy
7:00 AM66.2 °F44.6 °F46 %30.04 in6.2 miNE (40°)2.2 mphScattered Clouds
8:00 AM68.0 °F49.0 °F39 %30.05 in6.0 miESE (110°)2.2 mphScattered Clouds
8:00 AM69.8 °F44.6 °F40 %30.04 in6.2 miVariable2.2 mphPartly Cloudy
9:00 AM71.6 °F42.8 °F35 %30.04 in6.2 miEast (100°)6.7 mphScattered Clouds
10:00 AM73.4 °F42.8 °F33 %30.06 in6.2 miEast (100°)8.9 mphPartly Cloudy
11:00 AM76.0 °F46.0 °F23 %30.04 in6.0 miENE (70°)8.9 mphScattered Clouds
11:00 AM77.0 °F42.8 °F29 %30.04 in6.2 miEast (90°)8.9 mphPartly Cloudy
12:00 PM78.8 °F44.6 °F30 %30.04 in6.2 miEast (80°)8.9 mphPartly Cloudy
1:00 PM80.6 °F42.8 °F26 %30.01 in6.2 miENE (70°)8.9 mphScattered Clouds
2:00 PM83.0 °F48.0 °F19 %29.99 in6.0 miEast (100°)8.9 mphScattered Clouds
2:00 PM84.2 °F42.8 °F23 %29.98 in6.2 miEast (100°)8.9 mphScattered Clouds
3:00 PM86.0 °F42.8 °F22 %29.98 in6.2 miENE (60°)8.9 mphScattered Clouds
4:00 PM86.0 °F42.8 °F22 %29.95 in6.2 miEast (90°)11.2 mphScattered Clouds
5:00 PM86.0 °F50.0 °F19 %29.93 in6.0 miSE (130°)13.4 mphScattered Clouds
5:00 PM86.0 °F44.6 °F23 %29.95 in6.2 miESE (120°)11.2 mphScattered Clouds
6:00 PM84.2 °F42.8 °F23 %29.95 in6.2 miESE (120°)11.2 mphScattered Clouds
7:00 PM82.4 °F44.6 °F26 %29.92 in6.2 miEast (100°)6.7 mphPartly Cloudy
8:00 PM78.0 °F49.0 °F26 %29.92 in6.0 miEast (100°)8.9 mph
8:00 PM80.6 °F44.6 °F28 %29.92 in6.2 miEast (100°)8.9 mphClear
9:00 PM77.0 °F42.8 °F29 %29.95 in6.2 miEast (80°)6.7 mphClear
10:00 PM75.2 °F42.8 °F31 %29.92 in6.2 miESE (110°)8.9 mphClear
11:00 PM75.0 °F44.0 °F23 %29.93 in6.0 miEast (100°)11.2 mph
11:00 PM75.2 °F42.8 °F31 %29.92 in6.2 miEast (100°)11.2 mphClear
Hourly data recorded from UTAA, located miles away from Kurtile, Turkmenistan







STORIES FROM OUR PARTNERS